Location: Fort Worth, Tx
(32.7431°N, 97.3695°W)
Time: 05:16:06
(UTC-05:00)

Altair - Pass Details

Date: 12 October 2023
Orbit: 1501 x 1682 km, 47.2° (Epoch: 06 December)

Event Time Altitude Azimuth Distance (km) Brightness Sun altitude
Rises 01:43:04 0° 249° (WSW) 4,665 - -63.4°
Reaches altitude 10° 01:46:08 10° 253° (WSW) 3,703 - -63.6°
Maximum altitude 01:55:21 58° 331° (NNW) 1,795 - -64.1°
Drops below altitude 10° 02:04:58 10° 50° (NE) 3,851 - -64.4°
Exits shadow 02:07:36 - 53° (NE) 4,657 10.2 -64.5°
Sets 02:08:15 0° 54° (NE) 4,862 10.3 -64.5°
